Hourly Weather Barkowo

Today, 6 May, Thursday

Time Temperature Precipitation Wind Pressure Humidity
00:00 +2°C° 0.2 mm 11 mps 745 mmHg 82%
01:00 +2°C° 0 mm 11 mps 745 mmHg 79%
02:00 +2°C° 0 mm 11 mps 746 mmHg 75%
03:00 +2°C° 0 mm 10 mps 746 mmHg 70%
04:00 +2°C° 0 mm 10 mps 746 mmHg 66%
05:00 +2°C° 0 mm 10 mps 747 mmHg 67%
06:00 +2°C° 0 mm 10 mps 747 mmHg 68%
07:00 +2°C° 0 mm 10 mps 747 mmHg 69%
08:00 +3°C° 0 mm 10 mps 747 mmHg 64%
09:00 +6°C° 0 mm 9 mps 748 mmHg 59%
10:00 +7°C° 0 mm 9 mps 748 mmHg 53%
11:00 +7°C° 0 mm 9 mps 748 mmHg 49%
12:00 +8°C° 0 mm 9 mps 748 mmHg 44%
13:00 +10°C° 0 mm 9 mps 748 mmHg 39%
14:00 +10°C° 0.1 mm 8 mps 748 mmHg 43%
15:00 +9°C° 0.1 mm 7 mps 748 mmHg 46%
16:00 +9°C° 0.1 mm 7 mps 748 mmHg 50%
17:00 +8°C° 0.1 mm 5 mps 748 mmHg 56%
18:00 +7°C° 0.1 mm 4 mps 748 mmHg 62%
19:00 +7°C° 0.1 mm 3 mps 748 mmHg 69%
20:00 +6°C° 0 mm 2 mps 748 mmHg 72%
21:00 +5°C° 0 mm 2 mps 749 mmHg 75%
22:00 +4°C° 0 mm 2 mps 749 mmHg 78%
23:00 +4°C° 0 mm 2 mps 749 mmHg 80%

Tomorrow, 7 May, Friday

Time Temperature Precipitation Wind Pressure Humidity
00:00 +4°C° 0 mm 2 mps 749 mmHg 82%
01:00 +4°C° 0 mm 1 mps 749 mmHg 84%
02:00 +4°C° 0 mm 1 mps 748 mmHg 84%
03:00 +4°C° 0 mm 1 mps 748 mmHg 85%
04:00 +4°C° 0 mm 1 mps 748 mmHg 85%
05:00 +4°C° 0 mm 2 mps 748 mmHg 81%
06:00 +5°C° 0 mm 2 mps 749 mmHg 78%
07:00 +5°C° 0 mm 3 mps 749 mmHg 75%
08:00 +7°C° 0 mm 3 mps 749 mmHg 68%
09:00 +7°C° 0 mm 4 mps 749 mmHg 62%
10:00 +7°C° 0 mm 4 mps 750 mmHg 56%
11:00 +8°C° 0 mm 5 mps 750 mmHg 56%
12:00 +8°C° 0 mm 6 mps 750 mmHg 57%
13:00 +8°C° 0 mm 6 mps 750 mmHg 57%
14:00 +8°C° 0.2 mm 6 mps 751 mmHg 60%
15:00 +7°C° 0.2 mm 6 mps 751 mmHg 63%
16:00 +7°C° 0.2 mm 6 mps 752 mmHg 66%
17:00 +6°C° 0.1 mm 5 mps 752 mmHg 71%
18:00 +6°C° 0.1 mm 5 mps 753 mmHg 76%
19:00 +5°C° 0.1 mm 5 mps 753 mmHg 82%
20:00 +4°C° 0 mm 4 mps 754 mmHg 85%
21:00 +3°C° 0 mm 4 mps 754 mmHg 89%
22:00 +1°C° 0 mm 4 mps 755 mmHg 93%
23:00 +1°C° 0 mm 4 mps 755 mmHg 93%

Day after tomorrow, 8 May, Saturday

Time Temperature Precipitation Wind Pressure Humidity
00:00 +1°C° 0 mm 4 mps 755 mmHg 94%
01:00 0°C° 0 mm 4 mps 756 mmHg 95%
02:00 0°C° 0 mm 4 mps 756 mmHg 95%
03:00 0°C° 0 mm 4 mps 756 mmHg 96%
04:00 0°C° 0 mm 4 mps 756 mmHg 97%
05:00 +1°C° 0 mm 5 mps 757 mmHg 93%
06:00 +2°C° 0 mm 5 mps 757 mmHg 89%
07:00 +2°C° 0 mm 6 mps 757 mmHg 85%
08:00 +4°C° 0 mm 6 mps 758 mmHg 80%
09:00 +5°C° 0 mm 6 mps 758 mmHg 75%
10:00 +7°C° 0 mm 6 mps 758 mmHg 71%
11:00 +8°C° 0.1 mm 5 mps 758 mmHg 64%
12:00 +9°C° 0.1 mm 5 mps 758 mmHg 56%
13:00 +10°C° 0.1 mm 5 mps 759 mmHg 49%
14:00 +11°C° 0 mm 4 mps 759 mmHg 48%
15:00 +11°C° 0 mm 4 mps 759 mmHg 48%
16:00 +11°C° 0 mm 3 mps 758 mmHg 47%
17:00 +10°C° 0 mm 3 mps 758 mmHg 54%
18:00 +9°C° 0 mm 2 mps 758 mmHg 62%
19:00 +8°C° 0 mm 2 mps 758 mmHg 69%
20:00 +7°C° 0 mm 2 mps 758 mmHg 70%
21:00 +5°C° 0 mm 3 mps 758 mmHg 71%
22:00 +4°C° 0 mm 3 mps 758 mmHg 72%
23:00 +5°C° 0 mm 4 mps 758 mmHg 67%

9 May, Sunday

Time Temperature Precipitation Wind Pressure Humidity
00:00 +5°C° 0 mm 4 mps 757 mmHg 63%
01:00 +6°C° 0 mm 5 mps 757 mmHg 58%
02:00 +5°C° 0 mm 6 mps 756 mmHg 59%
03:00 +5°C° 0 mm 6 mps 756 mmHg 59%
04:00 +6°C° 0 mm 7 mps 755 mmHg 60%
05:00 +6°C° 0 mm 7 mps 755 mmHg 61%
06:00 +8°C° 0 mm 7 mps 755 mmHg 62%
07:00 +8°C° 0 mm 6 mps 754 mmHg 62%
08:00 +11°C° 0 mm 7 mps 754 mmHg 60%
09:00 +14°C° 0 mm 7 mps 754 mmHg 57%
10:00 +16°C° 0 mm 7 mps 754 mmHg 55%
11:00 +17°C° 0 mm 7 mps 754 mmHg 54%
12:00 +20°C° 0 mm 7 mps 754 mmHg 52%
13:00 +21°C° 0 mm 7 mps 754 mmHg 51%
14:00 +21°C° 0 mm 6 mps 754 mmHg 53%
15:00 +21°C° 0 mm 6 mps 753 mmHg 54%
16:00 +22°C° 0 mm 6 mps 753 mmHg 56%
17:00 +20°C° 0 mm 5 mps 753 mmHg 62%
18:00 +19°C° 0 mm 5 mps 753 mmHg 67%
19:00 +17°C° 0 mm 5 mps 753 mmHg 73%
20:00 +16°C° 0 mm 5 mps 753 mmHg 76%
21:00 +15°C° 0 mm 5 mps 753 mmHg 79%
22:00 +14°C° 0 mm 5 mps 753 mmHg 82%
23:00 +13°C° 0 mm 5 mps 753 mmHg 83%

10 May, Monday

Time Temperature Precipitation Wind Pressure Humidity
00:00 +12°C° 0 mm 5 mps 753 mmHg 83%
01:00 +10°C° 0 mm 5 mps 753 mmHg 84%
02:00 +10°C° 0 mm 5 mps 753 mmHg 82%
03:00 +9°C° 0 mm 5 mps 753 mmHg 81%
04:00 +9°C° 0 mm 5 mps 753 mmHg 79%
05:00 +10°C° 0 mm 6 mps 753 mmHg 77%
06:00 +11°C° 0 mm 6 mps 753 mmHg 74%
07:00 +13°C° 0 mm 6 mps 753 mmHg 71%
08:00 +14°C° 0 mm 6 mps 753 mmHg 66%
09:00 +16°C° 0 mm 6 mps 753 mmHg 61%
10:00 +19°C° 0 mm 6 mps 754 mmHg 56%
11:00 +20°C° 0 mm 6 mps 753 mmHg 54%
12:00 +21°C° 0 mm 6 mps 753 mmHg 52%
13:00 +22°C° 0 mm 6 mps 753 mmHg 50%
14:00 +22°C° 0 mm 5 mps 753 mmHg 51%
15:00 +22°C° 0 mm 4 mps 753 mmHg 52%
16:00 +24°C° 0 mm 3 mps 753 mmHg 53%
17:00 +21°C° 0 mm 3 mps 753 mmHg 59%
18:00 +20°C° 0 mm 2 mps 753 mmHg 64%
19:00 +20°C° 0 mm 1 mps 753 mmHg 70%
20:00 +18°C° 0 mm 2 mps 753 mmHg 75%
21:00 +17°C° 0 mm 2 mps 753 mmHg 79%
22:00 +14°C° 0 mm 3 mps 753 mmHg 84%
23:00 +14°C° 0 mm 3 mps 753 mmHg 87%

11 May, Tuesday

Time Temperature Precipitation Wind Pressure Humidity
00:00 +14°C° 0 mm 3 mps 753 mmHg 90%
01:00 +13°C° 0 mm 3 mps 752 mmHg 93%
02:00 +13°C° 0 mm 3 mps 752 mmHg 93%
03:00 +13°C° 0 mm 3 mps 752 mmHg 93%
04:00 +12°C° 0 mm 3 mps 752 mmHg 94%
05:00 +14°C° 0 mm 4 mps 752 mmHg 88%
06:00 +15°C° 0 mm 4 mps 752 mmHg 83%
07:00 +16°C° 0 mm 5 mps 752 mmHg 77%
08:00 +19°C° 0 mm 5 mps 752 mmHg 72%
09:00 +20°C° 0 mm 5 mps 752 mmHg 68%
10:00 +22°C° 0 mm 5 mps 751 mmHg 63%
11:00 +23°C° 0 mm 4 mps 751 mmHg 61%
12:00 +23°C° 0 mm 4 mps 751 mmHg 59%
13:00 +25°C° 0 mm 3 mps 751 mmHg 57%
14:00 +24°C° 0 mm 3 mps 751 mmHg 61%
15:00 +22°C° 0 mm 3 mps 751 mmHg 66%
16:00 +21°C° 0 mm 3 mps 751 mmHg 70%
17:00 +19°C° 0 mm 3 mps 752 mmHg 76%
18:00 +18°C° 0 mm 3 mps 752 mmHg 82%
19:00 +16°C° 0 mm 3 mps 752 mmHg 88%
20:00 +15°C° 0 mm 2 mps 753 mmHg 89%
21:00 +14°C° 0 mm 2 mps 753 mmHg 90%
22:00 +14°C° 0 mm 1 mps 753 mmHg 91%
23:00 +14°C° 0 mm 2 mps 753 mmHg 90%
Show more